[Date Prev][Date Next][Thread Prev][Thread Next] - [Date Index][Thread Index][Author Index]
2 Line ISS Keps 4-22
- Subject: [sarex] 2 Line ISS Keps 4-22
- From: "Dave Larsen PhD" <doc@xxxxxxxxxxx>
- Date: Thu, 22 Apr 2004 04:13:21 -0700
ISS
1 25544U 98067A 04113.42297839 .00027444 00000-0 24024-3 0 6244
2 25544 51.6272 249.9790 0011097 58.7173 59.5041 15.68607688309566
----
Via the sarex mailing list at AMSAT.ORG courtesy of AMSAT-NA.
To unsubscribe, send "unsubscribe sarex" to Majordomo@amsat.org
AMSAT Home